Radiation Dose at Monitoring Post of Fukushima Daini Nuclear Power Station
Date,Time,MP-1(microSv/h),MP-2(microSv/h),MP-3(microSv/h),MP-4(microSv/h),MP-5(microSv/h),MP-6(microSv/h),MP-7(microSv/h),Wind Direction,Wind Velocity(m/s),Rain
2020/02/18,00:00,0.189,0.176,0.280,0.261,0.261,0.152,0.100,north-northeast,3.1,Yes
2020/02/18,00:10,0.191,0.179,0.280,0.261,0.262,0.153,0.102,southwest,1.4,Yes
2020/02/18,00:20,0.192,0.181,0.281,0.261,0.263,0.154,0.102,north-northwest,4.1,Yes
2020/02/18,00:30,0.192,0.179,0.280,0.260,0.262,0.153,0.102,north,3.7,Yes
2020/02/18,00:40,0.191,0.180,0.280,0.260,0.261,0.152,0.100,north-northwest,3.2,Yes
2020/02/18,00:50,0.189,0.178,0.280,0.258,0.259,0.150,0.100,north-northwest,3.4,Yes
2020/02/18,01:00,0.188,0.177,0.278,0.256,0.261,0.148,0.098,north-northwest,4.5,Yes
2020/02/18,01:10,0.189,0.177,0.279,0.257,0.259,0.149,0.098,north-northwest,4.8,Yes
2020/02/18,01:20,0.189,0.178,0.279,0.259,0.260,0.149,0.099,north,5.0,Yes
2020/02/18,01:30,0.190,0.177,0.281,0.258,0.261,0.152,0.100,north,4.9,Yes
2020/02/18,01:40,0.190,0.179,0.280,0.259,0.262,0.151,0.101,north-northwest,3.3,Yes
2020/02/18,01:50,0.192,0.179,0.280,0.260,0.261,0.152,0.101,north-northwest,3.0,Yes
2020/02/18,02:00,0.190,0.179,0.279,0.259,0.260,0.153,0.101,north,2.1,Yes
2020/02/18,02:10,0.190,0.178,0.278,0.258,0.261,0.153,0.100,north-northwest,2.8,Yes
2020/02/18,02:20,0.190,0.178,0.278,0.259,0.261,0.151,0.100,north,3.3,Yes
2020/02/18,02:30,0.188,0.176,0.277,0.257,0.260,0.150,0.099,north,3.4,Yes
2020/02/18,02:40,0.187,0.176,0.275,0.257,0.257,0.149,0.097,north,3.0,No
2020/02/18,02:50,0.185,0.172,0.275,0.253,0.255,0.146,0.095,north-northwest,2.0,No
2020/02/18,03:00,0.183,0.171,0.272,0.254,0.254,0.144,0.093,north-northwest,2.3,No
2020/02/18,03:10,0.181,0.170,0.271,0.250,0.254,0.142,0.092,north-northwest,2.4,No
2020/02/18,03:20,0.180,0.168,0.270,0.250,0.251,0.141,0.091,north-northwest,3.0,No
2020/02/18,03:30,0.180,0.168,0.270,0.249,0.252,0.140,0.089,north-northwest,3.7,Yes
2020/02/18,03:40,0.180,0.167,0.269,0.250,0.253,0.140,0.089,north-northwest,3.8,Yes
2020/02/18,03:50,0.180,0.168,0.270,0.250,0.252,0.140,0.089,north,2.5,Yes
2020/02/18,04:00,0.180,0.167,0.270,0.251,0.252,0.140,0.088,north,1.3,No
2020/02/18,04:10,0.180,0.165,0.268,0.249,0.249,0.139,0.089,northwest,0.9,No
2020/02/18,04:20,0.178,0.166,0.267,0.249,0.250,0.138,0.087,west,1.7,No
2020/02/18,04:30,0.178,0.164,0.268,0.248,0.251,0.138,0.086,west,2.6,No
2020/02/18,04:40,0.177,0.165,0.267,0.247,0.249,0.137,0.085,west,3.1,No
2020/02/18,04:50,0.178,0.164,0.267,0.248,0.250,0.137,0.085,west-northwest,2.5,No
2020/02/18,05:00,0.176,0.164,0.267,0.247,0.249,0.137,0.084,west-northwest,2.7,No
2020/02/18,05:10,0.175,0.163,0.266,0.247,0.249,0.137,0.085,northwest,2.2,No
2020/02/18,05:20,0.176,0.163,0.266,0.247,0.247,0.136,0.085,northwest,1.9,No
2020/02/18,05:30,0.175,0.162,0.266,0.248,0.250,0.136,0.085,northwest,2.0,No
2020/02/18,05:40,0.176,0.162,0.267,0.247,0.248,0.136,0.084,west-northwest,3.0,No
2020/02/18,05:50,0.175,0.163,0.266,0.248,0.248,0.136,0.085,west-northwest,3.4,No
2020/02/18,06:00,0.175,0.163,0.267,0.246,0.248,0.136,0.084,northwest,3.9,No
2020/02/18,06:10,0.176,0.162,0.265,0.246,0.248,0.135,0.084,northwest,3.8,No
2020/02/18,06:20,0.175,0.161,0.265,0.247,0.249,0.135,0.085,west-northwest,4.1,No
2020/02/18,06:30,0.175,0.162,0.265,0.246,0.248,0.136,0.084,west-northwest,3.8,No
2020/02/18,06:40,0.175,0.163,0.267,0.245,0.249,0.134,0.084,west,4.2,No
2020/02/18,06:50,0.175,0.162,0.266,0.246,0.247,0.135,0.084,west-northwest,5.6,No
2020/02/18,07:00,0.175,0.162,0.265,0.248,0.247,0.136,0.083,west-northwest,4.6,No
2020/02/18,07:10,0.175,0.163,0.265,0.247,0.248,0.135,0.084,west,2.9,No
2020/02/18,07:20,0.175,0.163,0.265,0.246,0.248,0.135,0.083,west-northwest,1.9,No
2020/02/18,07:30,0.175,0.162,0.266,0.247,0.248,0.135,0.084,west-northwest,2.3,No
2020/02/18,07:40,0.177,0.162,0.266,0.246,0.249,0.135,0.083,west-northwest,3.1,No
2020/02/18,07:50,0.176,0.161,0.265,0.246,0.248,0.135,0.084,west-northwest,3.7,No
2020/02/18,08:00,0.175,0.163,0.265,0.246,0.248,0.136,0.083,west-northwest,4.4,No
2020/02/18,08:10,0.175,0.164,0.266,0.245,0.247,0.136,0.084,northwest,5.4,No
2020/02/18,08:20,0.176,0.162,0.267,0.246,0.248,0.135,0.084,west,1.8,No
2020/02/18,08:30,0.175,0.162,0.266,0.247,0.249,0.136,0.084,west,1.2,No
2020/02/18,08:40,0.176,0.164,0.266,0.247,0.249,0.136,0.084,-,CALM,No
2020/02/18,08:50,0.176,0.163,0.266,0.246,0.248,0.135,0.083,north,1.1,No
2020/02/18,09:00,0.176,0.161,0.265,0.246,0.249,0.135,0.084,west-southwest,1.7,No
2020/02/18,09:10,0.175,0.162,0.265,0.247,0.247,0.135,0.083,west,4.2,No
2020/02/18,09:20,0.176,0.163,0.266,0.246,0.249,0.135,0.084,west-northwest,3.6,No
2020/02/18,09:30,0.176,0.162,0.265,0.246,0.249,0.136,0.083,west-northwest,4.0,No
2020/02/18,09:40,0.175,0.162,0.265,0.248,0.249,0.136,0.084,west-northwest,8.9,No
2020/02/18,09:50,0.175,0.162,0.267,0.246,0.250,0.136,0.084,west,6.8,No
2020/02/18,10:00,0.176,0.162,0.268,0.247,0.250,0.136,0.084,west,7.4,No
2020/02/18,10:10,0.174,0.163,0.268,0.246,0.249,0.136,0.084,west,7.4,No
2020/02/18,10:20,0.175,0.162,0.267,0.247,0.249,0.136,0.083,west-northwest,6.3,No
2020/02/18,10:30,0.174,0.162,0.268,0.249,0.249,0.136,0.084,west-northwest,6.2,No
2020/02/18,10:40,0.174,0.163,0.267,0.246,0.249,0.137,0.084,west-northwest,3.6,No
2020/02/18,10:50,0.176,0.163,0.267,0.247,0.249,0.136,0.083,west-northwest,5.8,No
2020/02/18,11:00,0.176,0.162,0.268,0.248,0.251,0.137,0.084,west,11.1,No
2020/02/18,11:10,0.176,0.163,0.267,0.248,0.250,0.137,0.084,west-southwest,6.3,No
2020/02/18,11:20,0.176,0.163,0.268,0.249,0.249,0.137,0.084,west-southwest,11.2,No
2020/02/18,11:30,0.176,0.163,0.268,0.249,0.250,0.138,0.085,west-northwest,10.1,Yes
2020/02/18,11:40,0.179,0.164,0.269,0.250,0.251,0.140,0.086,northwest,8.7,Yes
2020/02/18,11:50,0.178,0.166,0.269,0.251,0.252,0.140,0.087,west-northwest,9.6,No
2020/02/18,12:00,0.179,0.165,0.270,0.251,0.254,0.140,0.086,west-northwest,7.6,No
2020/02/18,12:10,0.179,0.165,0.272,0.251,0.251,0.140,0.086,west,10.0,No
2020/02/18,12:20,0.178,0.165,0.270,0.251,0.252,0.139,0.086,west,3.8,No
2020/02/18,12:30,0.179,0.165,0.267,0.252,0.252,0.139,0.086,northwest,5.3,No
2020/02/18,12:40,0.177,0.164,0.270,0.249,0.250,0.139,0.086,west,7.8,No
2020/02/18,12:50,0.176,0.164,0.268,0.250,0.251,0.138,0.085,west,5.7,No
2020/02/18,13:00,0.177,0.164,0.267,0.247,0.252,0.138,0.085,west-northwest,9.3,No
2020/02/18,13:10,0.177,0.163,0.270,0.248,0.248,0.138,0.084,west,14.5,No
2020/02/18,13:20,0.178,0.163,0.269,0.248,0.249,0.138,0.085,west,13.7,No
2020/02/18,13:30,0.177,0.163,0.269,0.248,0.251,0.138,0.085,west,12.3,No
2020/02/18,13:40,0.176,0.163,0.269,0.249,0.249,0.137,0.084,west,11.5,No
2020/02/18,13:50,0.177,0.163,0.267,0.249,0.250,0.138,0.085,west,10.9,No
2020/02/18,14:00,0.176,0.164,0.268,0.249,0.250,0.138,0.085,west,11.7,No
2020/02/18,14:10,0.176,0.163,0.268,0.249,0.250,0.137,0.084,west,10.0,No
2020/02/18,14:20,0.178,0.163,0.269,0.248,0.249,0.138,0.085,west,8.7,No
2020/02/18,14:30,0.177,0.164,0.269,0.249,0.248,0.137,0.084,west-northwest,11.5,No
2020/02/18,14:40,0.177,0.164,0.268,0.250,0.250,0.138,0.084,west-northwest,9.5,No
2020/02/18,14:50,0.177,0.164,0.269,0.250,0.250,0.138,0.084,west,11.8,No
2020/02/18,15:00,0.177,0.163,0.271,0.249,0.250,0.137,0.084,west,10.1,No
2020/02/18,15:10,0.177,0.164,0.270,0.251,0.251,0.137,0.085,west,7.5,No
2020/02/18,15:20,0.176,0.164,0.270,0.250,0.252,0.138,0.084,west,10.6,No
2020/02/18,15:30,0.177,0.163,0.269,0.248,0.251,0.137,0.084,west,13.4,No
2020/02/18,15:40,0.177,0.163,0.270,0.250,0.251,0.137,0.084,west,10.3,No
2020/02/18,15:50,0.177,0.164,0.270,0.251,0.251,0.138,0.085,west,8.4,No
2020/02/18,16:00,0.178,0.164,0.269,0.250,0.251,0.137,0.085,west,9.8,No
2020/02/18,16:10,0.178,0.163,0.269,0.250,0.251,0.138,0.084,west,9.6,No
2020/02/18,16:20,0.178,0.164,0.268,0.250,0.251,0.138,0.084,west,11.8,No
2020/02/18,16:30,0.177,0.164,0.269,0.251,0.252,0.138,0.084,west,8.7,No
2020/02/18,16:40,0.178,0.164,0.270,0.250,0.251,0.137,0.084,west,10.4,No
2020/02/18,16:50,0.177,0.163,0.270,0.249,0.249,0.138,0.085,west,9.3,No
2020/02/18,17:00,0.178,0.163,0.269,0.249,0.249,0.138,0.085,west,7.9,No
2020/02/18,17:10,0.178,0.164,0.270,0.249,0.250,0.137,0.084,west-southwest,6.7,No
2020/02/18,17:20,0.178,0.164,0.270,0.252,0.252,0.138,0.084,west,10.1,No
2020/02/18,17:30,0.179,0.164,0.270,0.249,0.251,0.137,0.084,west,11.7,No
2020/02/18,17:40,0.179,0.164,0.271,0.250,0.251,0.138,0.085,west,8.7,No
2020/02/18,17:50,0.178,0.164,0.270,0.250,0.250,0.138,0.085,west,9.0,No
2020/02/18,18:00,0.177,0.165,0.270,0.251,0.251,0.137,0.084,west,10.1,No
2020/02/18,18:10,0.178,0.164,0.271,0.251,0.251,0.138,0.084,west,8.7,No
2020/02/18,18:20,0.178,0.164,0.269,0.250,0.251,0.138,0.084,west,9.2,No
2020/02/18,18:30,0.178,0.164,0.270,0.250,0.250,0.138,0.084,west,10.0,No
2020/02/18,18:40,0.178,0.164,0.269,0.251,0.250,0.137,0.084,west,9.5,No
2020/02/18,18:50,0.177,0.164,0.270,0.251,0.249,0.138,0.084,west,10.1,No
2020/02/18,19:00,0.178,0.164,0.270,0.250,0.252,0.138,0.085,west-southwest,13.7,No
2020/02/18,19:10,0.177,0.165,0.270,0.251,0.249,0.138,0.085,west-southwest,10.3,No
2020/02/18,19:20,0.177,0.165,0.270,0.251,0.250,0.138,0.084,west,12.9,No
2020/02/18,19:30,0.178,0.164,0.269,0.250,0.249,0.138,0.085,west,14.0,No
2020/02/18,19:40,0.177,0.165,0.270,0.252,0.250,0.138,0.085,west,10.7,No
2020/02/18,19:50,0.179,0.164,0.270,0.250,0.251,0.138,0.084,west,13.7,No
2020/02/18,20:00,0.178,0.164,0.270,0.251,0.250,0.138,0.085,west,10.4,No
2020/02/18,20:10,0.178,0.164,0.269,0.250,0.251,0.137,0.085,west,9.2,No
2020/02/18,20:20,0.177,0.163,0.269,0.250,0.250,0.137,0.084,west,8.1,No
2020/02/18,20:30,0.178,0.164,0.271,0.250,0.252,0.138,0.085,west,6.3,No
2020/02/18,20:40,0.179,0.164,0.270,0.250,0.251,0.139,0.084,west,9.3,No
2020/02/18,20:50,0.178,0.163,0.271,0.250,0.251,0.138,0.084,west,9.0,No
2020/02/18,21:00,0.179,0.165,0.271,0.250,0.249,0.138,0.085,west,10.1,No
2020/02/18,21:10,0.178,0.164,0.270,0.251,0.250,0.138,0.085,west,9.0,No
2020/02/18,21:20,0.177,0.164,0.270,0.250,0.251,0.137,0.085,west,10.6,No
2020/02/18,21:30,0.179,0.164,0.271,0.250,0.249,0.138,0.085,west,10.6,No
2020/02/18,21:40,0.178,0.163,0.269,0.250,0.250,0.138,0.085,west,9.5,No
2020/02/18,21:50,0.179,0.163,0.270,0.250,0.249,0.138,0.084,west,10.3,No
2020/02/18,22:00,0.178,0.164,0.270,0.251,0.251,0.138,0.085,west,14.2,No
2020/02/18,22:10,0.177,0.164,0.271,0.251,0.251,0.138,0.085,west,14.2,No
2020/02/18,22:20,0.179,0.164,0.270,0.251,0.250,0.138,0.085,west,11.1,No
2020/02/18,22:30,0.178,0.163,0.271,0.250,0.250,0.138,0.085,west,10.9,No
2020/02/18,22:40,0.178,0.163,0.270,0.252,0.250,0.138,0.085,west,12.8,No
2020/02/18,22:50,0.179,0.164,0.271,0.250,0.250,0.138,0.085,west,11.8,No
2020/02/18,23:00,0.178,0.165,0.270,0.250,0.251,0.138,0.085,west,11.2,No
2020/02/18,23:10,0.178,0.165,0.271,0.252,0.249,0.139,0.084,west,10.6,No
2020/02/18,23:20,0.178,0.163,0.270,0.250,0.250,0.138,0.085,west,12.6,No
2020/02/18,23:30,0.179,0.165,0.271,0.251,0.250,0.138,0.085,west,10.1,No
2020/02/18,23:40,0.179,0.164,0.271,0.250,0.250,0.138,0.084,west,10.9,No
2020/02/18,23:50,0.178,0.165,0.271,0.250,0.250,0.138,0.084,west,9.0,No
